User: anonymous   Login
Location: Newark
(35.8833°N, 14.5000°E)
Time: 09:05:56
(UTC+00:00)
Language:

UNISAT 6 - Orbit

View from above orbital plane
View from above orbital plane
View from above satellite
View from above satellite

Ground track
Ground track

The orbit data is extracted from the following two-line orbital elements,

1 40012U 14033C   19143.20044015  .00000132  00000-0  27040-4 0  9995
2 40012  97.7611  10.9487 0058181 181.8958 178.2040 14.73966815264781
Epoch (UTC): 23 May 2019 04:48:38
Eccentricity: 0.0058181
inclination: 97.7611°
perigee height: 607 km
apogee height: 689 km
right ascension of ascending node: 10.9487°
argument of perigee: 181.8958°
revolutions per day: 14.73966815
mean anomaly at epoch: 178.2040°
orbit number at epoch: 26478

The dashed part of the orbit path shows where the satellite is in the earth's shadow,  

DLR